Weather in Mossoro

Brazil     5°11′10″S   37°20′27″W
temp.,
°C
wind,
m/s
gust,
m/s
humid.,
%
clouds,
%
prec.,
mm/h
press.,
hPa
HPBL,
m
15 august, mon
mon1500:00+23se815685 0.0 1015550
03:00+21sse511765 0.0 1014406
06:00+21sse511767 0.0 1015431
09:00+28se57425 0.0 10161273
12:00+33se45236 0.0 10132327
15:00+34ese55205 0.0 10102843
18:00+28e59393 0.0 1011250
21:00+25ese815565 0.0 1013568
16 august, tue
tue1600:00+23se612665 0.0 1014504
03:00+21se49755 0.0 1014289
06:00+20se36784 0.0 1015150
09:00+27se67485 0.0 10171360
12:00+32se56281 0.0 10142157
15:00+34se55235 0.0 10112530
18:00+28ese510384 0.0 1012239
21:00+25ese814550 0.0 1015584
17 august, wed
wed1700:00+22ese613670 0.0 1014445
03:00+20sse37750 0.0 1014172
06:00+20sse37770 0.0 1015197
09:00+28se57450 0.0 10161273
12:00+33se56290 0.0 10132179
15:00+34se66260 0.0 10102460
18:00+29ese712395 0.0 1012439
21:00+25ese815663 0.0 1014605
18 august, thu
thu1800:00+23ese614765 0.0 1014655
03:00+22se48805 0.0 1013384
06:00+23se3874100 0.0 1014684
09:00+27se7957100 0.0 10161441
12:00+31ese574471 0.0 10131904
15:00+32e664091 0.0 10102232
18:00+28ese61054100 0.0 1012502
21:00+25ese7136697 0.0 1014525
19 august, fri
fri1900:00+23se497068 0.0 1014316
03:00+22sse5106851 0.0 1014374
06:00+21sse41068100 0.0 1015403
09:00+28se684363 0.0 10161158
12:00+34sse562942 0.0 10132119
15:00+35sse56265 0.0 10092691
18:00+26nne586495 0.0 1011182
21:00+25ese6126434 0.0 1014605